User: anonymous   Login
Location: Pompeys Pillar
(45.9913°N, 107.9528°W)
Time: 19:12:47
(UTC+00:00)
Language:

Tiros 1 - Orbit

View from above orbital plane
View from above orbital plane
View from above satellite
View from above satellite

Ground track
Ground track

The orbit data is extracted from the following two-line orbital elements,

1 00029U 60002B   22145.41713576  .00000432  00000-0  94645-4 0  9998
2 00029  48.3785 211.7826 0023782  15.9587 344.2070 14.74635699322867
Epoch (UTC): 25 May 2022 10:00:40
Eccentricity: 0.0023782
inclination: 48.3785°
perigee height: 629 km
apogee height: 663 km
right ascension of ascending node: 211.7826°
argument of perigee: 15.9587°
revolutions per day: 14.74635699
mean anomaly at epoch: 344.2070°
orbit number at epoch: 32286

The dashed part of the orbit path shows where the satellite is in the earth's shadow,  

DLR